GFSFLT2_sfc_dewp_000.txt.gz
Dewpoint
18 20 19 20 18 21 19 26 22 29 29 31 36 39 47 49 52 53 56 58 60 61 62 63 64 66 68 69 69 71 71 72
15 21 21 19 21 19 20 19 22 24 26 29 34 37 42 47 50 51 54 58 59 62 62 63 64 65 67 68 69 70 70 70
17 16 14 21 20 21 21 21 18 18 23 30 32 37 39 45 48 49 52 56 58 62 63 64 64 65 67 68 69 70 69 67
12 16 19 19 19 20 17 18 23 21 20 29 34 37 45 44 47 48 52 56 58 61 63 64 64 64 66 67 68 69 69 66
10 12 22 18 23 21 21 23 24 21 21 33 39 42 48 47 48 49 53 56 57 60 62 63 63 64 65 67 67 68 68 65
11 11 16 20 24 25 19 21 22 24 22 29 38 43 47 49 49 49 52 55 57 58 60 61 62 64 65 66 67 68 66 64
14 14 20 19 22 25 22 22 21 21 24 28 37 41 44 49 51 51 50 52 56 57 59 60 61 63 64 65 67 67 66 64
14 13 17 15 19 26 25 26 25 26 26 29 40 44 44 47 50 50 51 50 51 55 58 59 60 61 64 66 66 68 67 65
14 17 16 18 15 20 24 27 25 24 27 32 39 41 43 44 47 48 49 51 52 52 55 56 58 61 64 66 68 68 67 67
16 21 16 16 32 22 26 40 39 39 34 36 39 44 45 45 45 47 50 53 53 53 55 57 58 60 64 66 68 68 68 68
20 19 22 37 41 38 34 38 44 43 46 43 42 44 45 46 49 48 52 54 56 56 56 59 61 62 64 66 67 68 68 66
31 21 26 35 44 47 45 35 44 45 44 43 43 37 43 48 48 48 51 53 55 57 59 61 63 64 64 65 67 67 67 66
37 34 36 45 46 48 33 35 47 46 46 44 43 45 47 51 50 53 56 57 59 62 63 63 64 65 64 64 65 67 66 66
41 37 34 47 47 38 45 46 48 48 48 48 48 50 52 53 53 54 55 57 59 61 63 65 64 64 63 64 65 66 66 66
43 43 48 50 48 49 49 45 46 47 48 52 51 52 54 55 55 57 59 60 63 64 64 63 63 64 63 63 64 64 63 63
47 47 48 47 48 47 48 48 48 49 51 53 53 56 56 57 57 58 60 61 63 63 62 61 62 62 63 64 64 63 62 62
46 47 48 45 48 50 48 47 45 46 48 50 51 52 53 55 60 60 60 62 62 61 61 62 63 62 63 64 62 61 61 61
43 47 46 45 47 50 44 43 44 44 43 46 47 48 50 50 56 61 61 62 61 61 62 62 61 62 62 62 62 62 61 60
46 46 46 45 44 43 40 41 41 42 44 44 45 45 48 50 52 59 61 62 62 61 61 61 61 61 62 61 60 60 60 58

GFSFLT2_sfc_dewp_003.txt.gz
Dewpoint
16 20 22 25 25 23 24 25 23 26 36 35 38 41 43 46 50 53 54 56 58 60 62 65 66 69 70 71 72 73 72 74
13 15 21 22 24 20 24 27 25 24 29 24 37 39 43 47 49 52 55 57 58 60 62 64 65 67 69 70 72 72 72 73
17 14 13 18 20 25 23 24 23 22 23 36 42 46 42 45 48 51 55 58 59 61 62 64 65 66 68 69 71 71 72 73
15 17 15 15 20 24 21 30 25 23 21 31 37 38 41 42 45 49 56 60 60 61 62 62 64 65 65 67 67 70 72 73
20 19 18 18 18 22 23 25 33 21 21 35 37 40 42 46 48 53 56 58 60 60 63 63 64 67 65 67 66 67 70 70
19 22 18 17 19 21 22 20 23 24 23 31 36 42 43 47 52 52 55 59 60 61 65 66 67 68 68 67 66 67 68 69
27 24 19 15 12 19 24 25 25 22 28 31 41 45 46 48 53 53 54 57 60 61 66 67 68 68 68 67 68 69 70 69
24 24 19 16 16 17 22 20 25 25 30 33 39 44 46 48 53 53 53 55 58 60 62 64 65 66 66 67 68 70 70 70
28 20 18 20 19 19 25 27 25 26 31 37 36 42 45 47 52 54 54 55 57 59 61 63 63 65 65 67 68 69 70 70
32 30 23 20 21 20 20 22 26 30 34 39 41 45 47 48 50 53 54 55 56 55 59 62 60 61 64 66 69 70 70 70
31 27 28 27 33 26 22 24 43 40 43 40 39 45 48 48 47 50 53 56 58 57 59 62 61 63 65 66 68 69 69 70
38 33 28 39 45 46 45 29 46 47 47 45 44 35 45 50 49 51 54 58 59 61 61 63 64 64 66 66 68 69 69 70
42 39 34 47 48 48 34 36 48 47 47 47 47 49 52 55 57 58 58 60 62 62 63 65 67 66 67 68 68 69 70 69
46 42 36 48 48 42 48 50 49 50 51 51 52 53 54 55 57 58 59 61 62 64 66 67 67 68 68 69 70 69 70 69
47 47 49 49 51 51 50 50 50 52 51 53 52 54 55 58 59 60 63 64 63 63 66 67 68 68 68 68 68 69 69 67
50 52 48 49 49 50 52 52 52 53 53 54 52 55 59 60 60 60 62 64 65 66 66 66 67 67 67 68 69 68 67 67
48 49 47 46 49 49 50 50 50 51 52 53 54 53 57 62 64 63 65 65 66 66 67 67 67 67 68 68 68 67 67 67
43 51 50 49 48 48 47 47 47 48 48 51 53 55 56 58 63 65 65 66 66 67 67 66 66 67 67 68 68 67 66 65
48 50 48 44 43 43 45 44 44 44 47 46 47 48 52 54 57 58 60 62 66 67 66 66 66 66 67 67 66 65 64 64

GFSFLT2_sfc_dewp_006.txt.gz
Dewpoint
11 13 13 21 22 24 23 24 20 21 30 30 31 34 34 35 41 45 51 52 52 56 59 61 64 67 70 73 73 73 73 75
15 14 14 16 23 22 23 29 26 24 27 28 33 31 30 34 40 45 50 52 51 54 57 60 62 65 68 70 72 72 72 73
20 15 13 15 17 24 23 24 23 24 24 30 33 34 33 29 41 42 48 52 53 53 55 59 61 63 65 68 70 71 72 74
14 13 11 14 20 24 23 31 25 24 21 24 29 30 30 29 29 32 46 52 55 55 56 58 61 61 62 65 67 69 72 74
23 12 14 12 14 20 23 26 33 25 24 26 28 31 33 39 40 42 50 53 56 56 58 59 60 63 62 64 64 66 69 70
20 24 18 17 13 14 16 21 25 24 27 28 27 31 31 34 42 45 53 56 58 58 61 62 64 67 67 64 64 65 66 69
24 20 19 18 13 13 15 18 23 24 24 28 31 31 31 30 34 44 54 56 58 59 64 68 68 68 68 66 67 66 68 68
30 24 22 19 19 15 13 14 17 18 22 24 28 31 30 30 32 44 53 55 58 61 63 66 66 68 68 69 68 69 70 69
32 27 26 25 23 20 18 15 16 18 23 23 25 29 33 34 40 45 52 55 58 60 62 65 66 68 68 69 69 70 71 71
33 35 29 24 25 24 20 16 18 23 25 27 31 35 39 41 38 45 52 55 58 57 61 65 64 64 66 68 70 70 72 72
33 30 31 30 31 24 22 21 19 25 28 27 30 39 47 49 49 50 54 56 58 59 62 65 63 65 66 67 68 69 70 71
35 31 31 39 45 47 46 33 26 24 27 28 34 36 29 51 48 49 54 56 58 59 61 62 63 63 65 65 68 69 70 71
34 35 33 47 46 47 40 33 29 32 37 37 40 43 53 53 53 54 57 60 61 61 60 63 63 64 65 66 66 68 70 71
37 38 34 48 46 44 51 52 50 48 47 48 53 55 56 57 58 59 59 58 57 61 64 65 65 66 67 68 70 71 71 71
40 36 51 50 50 52 51 50 51 52 52 53 52 54 55 56 56 56 56 56 58 61 65 67 69 69 69 72 72 72 70 69
47 49 49 50 50 50 51 51 51 52 50 51 51 52 53 55 56 59 60 60 60 62 65 68 70 70 71 71 71 71 70 70
47 51 48 50 51 51 50 51 52 52 52 54 56 57 60 61 61 61 62 62 62 63 66 68 69 70 70 70 70 69 69 69
42 51 53 50 48 48 48 48 50 50 51 52 54 56 60 62 63 64 65 65 66 66 68 69 69 69 70 70 70 69 66 65
50 51 49 49 47 44 45 45 45 46 48 49 49 49 52 55 58 57 61 63 66 66 67 68 68 68 69 69 69 68 65 66

GFSFLT2_sfc_dewp_009.txt.gz
Dewpoint
14 10 9 14 17 20 21 24 22 23 27 29 33 34 32 31 31 32 42 48 50 51 55 61 63 68 70 74 76 77 75 78
12 11 9 9 14 18 22 28 25 22 26 25 33 33 32 33 31 33 38 47 49 50 53 58 60 65 69 72 75 75 75 76
20 16 13 9 9 18 20 22 23 22 24 28 35 36 34 33 31 31 37 45 49 50 52 56 58 62 65 69 73 74 74 75
20 19 15 12 13 13 20 30 23 25 22 26 29 31 32 33 33 32 37 44 49 50 52 54 58 59 61 64 66 70 73 75
24 19 18 17 15 13 12 22 33 25 23 26 29 30 32 32 33 36 37 41 48 50 52 54 56 60 58 62 61 64 71 71
20 26 20 17 14 12 11 14 21 21 26 29 30 31 31 33 33 36 39 49 48 52 55 57 60 63 63 61 59 61 65 67
24 23 22 18 10 10 13 16 19 21 24 28 34 32 32 31 34 34 36 49 53 54 61 65 65 66 66 63 65 63 68 68
26 21 20 18 18 15 12 11 14 16 20 23 28 33 33 32 34 34 35 38 53 57 59 65 66 68 68 68 67 67 71 70
32 28 27 24 21 19 20 18 15 16 21 23 26 32 34 32 33 36 36 38 51 56 60 63 64 69 69 70 69 71 73 74
29 33 28 27 27 24 22 22 21 21 22 23 32 35 34 31 32 38 41 41 48 53 60 65 63 64 68 69 73 74 75 75
32 31 39 36 37 36 36 29 25 26 24 20 22 24 34 33 32 36 38 39 49 55 60 68 66 69 70 69 72 72 72 74
36 31 30 31 42 42 38 32 30 28 27 21 23 23 29 36 39 44 45 40 54 58 61 65 68 66 68 68 69 70 72 72
32 33 32 41 41 42 34 36 51 48 45 36 25 32 39 41 42 49 48 55 60 61 66 68 68 66 69 69 68 68 70 71
32 31 30 46 43 40 51 51 51 51 49 49 34 33 51 52 52 52 54 58 59 63 66 66 68 69 70 71 72 73 73 72
33 35 52 52 50 51 51 51 51 51 49 47 43 51 54 56 58 59 60 60 60 61 66 66 70 70 71 75 74 74 73 73
45 50 51 51 51 51 52 51 50 51 51 51 52 54 56 57 57 56 57 60 61 63 65 68 70 70 72 73 73 73 72 71
50 51 51 52 52 53 54 53 52 54 58 54 56 56 57 59 60 59 60 62 63 64 66 68 70 71 70 72 72 70 71 71
47 51 52 51 51 51 51 52 53 54 56 59 60 61 61 60 61 61 61 63 65 65 67 69 69 70 71 71 71 69 69 67
52 51 48 48 47 48 46 47 48 49 51 50 51 52 53 56 60 60 62 63 63 65 67 69 69 70 70 70 70 70 67 66

GFSFLT2_sfc_dewp_012.txt.gz
Dewpoint
14 13 8 11 13 14 18 21 20 22 25 25 33 41 40 37 35 39 47 49 50 56 57 63 64 67 69 74 75 76 76 77
16 14 13 9 13 11 15 24 25 23 29 29 34 41 40 41 37 36 36 50 51 52 58 61 64 66 69 72 75 76 76 76
19 18 15 11 10 12 13 19 22 25 26 33 40 44 43 42 38 35 38 43 49 52 54 60 63 65 67 70 74 76 76 76
17 18 16 13 13 13 13 26 21 23 24 26 39 35 38 37 37 38 40 44 47 52 53 57 61 63 66 69 71 74 75 76
18 17 20 15 13 13 11 16 25 22 23 28 41 38 43 39 39 43 46 54 48 49 54 56 58 62 64 67 68 72 74 74
18 24 21 22 17 16 13 13 19 18 27 30 38 40 38 44 43 43 49 54 53 52 56 56 59 63 64 66 66 69 71 72
20 18 19 20 17 17 18 21 21 20 21 29 34 40 38 40 44 42 49 52 56 58 62 61 63 64 64 64 65 66 70 71
26 22 20 20 21 17 15 16 19 19 20 22 28 34 38 40 38 44 45 46 55 58 65 66 64 64 64 64 64 66 68 69
28 24 23 22 24 22 21 14 16 17 24 27 28 33 40 46 44 45 45 46 56 59 61 64 65 66 64 64 65 66 69 70
27 30 26 25 24 21 21 22 20 23 27 29 31 34 35 36 42 45 45 45 48 50 60 65 64 63 66 66 68 68 72 71
30 27 30 27 29 30 26 26 28 27 30 25 28 29 34 33 35 39 41 50 49 42 59 65 65 67 69 68 68 71 70 75
33 30 30 35 32 41 38 34 39 42 38 34 33 26 28 37 34 33 34 40 49 45 62 67 68 67 69 69 70 69 73 74
32 29 29 38 40 40 35 38 49 47 47 46 44 48 52 45 56 47 40 46 62 65 65 69 70 69 70 71 71 72 74 75
37 37 38 45 45 40 50 49 47 47 47 48 51 50 50 53 58 57 53 55 64 67 70 71 71 72 73 73 75 76 75 75
34 34 49 52 52 51 50 49 50 49 47 47 47 48 47 55 54 55 56 64 63 68 71 72 74 73 73 75 75 74 74 75
37 43 47 48 47 49 49 51 51 57 59 53 48 48 52 57 60 63 64 66 66 68 69 71 73 73 75 75 75 75 75 74
41 51 52 53 54 53 52 57 59 59 60 62 62 61 60 63 65 64 65 67 68 69 70 72 74 74 74 75 75 73 72 71
53 53 54 53 53 53 53 54 56 56 56 59 61 61 62 64 65 66 67 67 68 70 71 72 72 73 74 74 73 72 70 69
52 54 51 49 47 49 50 49 50 50 53 54 58 58 59 62 63 61 63 66 68 69 70 71 71 71 72 73 73 71 69 69

GFSFLT2_sfc_dewp_015.txt.gz
Dewpoint
19 17 13 12 8 8 11 19 20 21 23 26 37 39 41 42 47 48 45 45 49 52 56 60 62 67 68 72 72 73 73 74
19 17 15 9 13 8 8 10 15 18 23 28 37 38 43 44 43 46 46 47 49 51 56 60 61 65 67 72 72 73 72 74
20 16 13 13 8 8 10 11 13 19 20 27 34 42 43 42 42 45 45 46 49 52 56 60 62 64 67 70 72 73 74 73
15 18 17 14 14 10 11 15 19 14 15 26 25 41 41 40 40 40 42 45 49 52 54 60 62 62 66 71 72 73 74 74
17 16 16 15 14 15 9 15 15 20 19 18 19 32 38 41 45 42 43 47 50 50 55 60 61 62 65 68 72 73 74 74
15 18 20 23 16 15 11 9 9 9 10 14 28 35 33 36 43 39 47 42 49 50 55 57 61 62 63 67 71 73 74 74
19 19 18 15 18 15 13 11 13 13 12 16 22 40 40 39 42 38 42 45 51 51 53 57 60 62 63 65 67 71 72 73
24 23 16 15 18 20 14 14 15 15 16 23 28 35 44 42 39 34 34 50 54 54 53 55 57 61 62 64 66 68 71 71
21 25 25 21 17 19 23 20 20 17 17 22 23 26 34 40 40 36 38 48 52 54 56 55 58 60 62 64 65 66 69 71
24 28 25 27 27 26 24 28 25 22 24 30 30 33 37 35 31 36 39 45 53 54 61 60 60 60 62 63 65 65 66 69
26 24 25 27 27 28 26 26 27 38 38 31 30 29 30 36 36 31 32 37 39 54 59 64 61 61 61 62 64 64 65 67
27 24 21 27 31 40 39 35 47 47 47 46 42 33 31 48 45 38 42 36 35 41 56 60 64 63 61 61 63 63 63 67
30 22 26 33 38 40 34 42 50 48 47 47 46 49 49 50 49 53 53 42 44 51 59 61 65 64 63 62 62 65 64 74
35 32 31 49 43 40 48 51 47 47 46 47 48 49 49 48 48 50 49 59 51 62 63 67 67 67 67 66 69 71 74 75
36 42 53 52 48 49 50 51 52 56 60 55 52 53 50 54 54 52 62 68 69 69 71 72 71 70 71 73 74 74 74 74
47 41 47 51 51 55 62 60 60 61 61 61 61 62 63 62 62 65 66 67 69 70 70 71 73 72 73 73 73 73 73 72
49 50 53 55 60 58 60 60 58 58 59 59 59 60 61 62 65 66 66 67 69 70 71 71 72 72 72 73 73 72 71 70
49 51 52 51 54 59 55 56 56 55 55 57 58 58 58 59 60 62 61 69 70 70 71 72 72 72 72 72 71 70 68 68
52 54 52 52 49 50 48 49 51 52 54 55 58 58 58 58 58 58 60 66 68 69 69 70 70 70 71 70 70 69 68 67

GFSFLT2_sfc_dewp_021.txt.gz
Dewpoint
24 21 19 16 16 16 9 25 14 19 22 25 30 35 42 44 45 47 49 50 51 53 54 57 59 62 65 65 66 70 70 70
18 21 21 19 15 14 9 10 10 11 17 19 27 28 39 45 45 46 48 49 50 52 53 56 57 60 64 65 65 67 70 70
15 15 17 17 16 12 11 10 9 9 10 16 25 31 36 43 46 46 47 47 49 50 52 54 57 59 63 65 65 65 68 69
14 18 15 16 15 14 13 11 11 9 9 20 21 23 32 37 41 47 47 47 47 48 50 53 56 58 63 65 66 66 68 68
11 12 17 16 18 15 14 13 13 10 12 17 21 24 34 36 41 45 47 48 47 48 49 52 56 58 63 64 66 66 68 69
15 14 17 16 16 17 14 13 14 12 12 16 19 20 25 42 43 47 48 48 48 47 50 52 56 58 62 65 66 67 68 69
26 26 24 16 15 15 15 15 13 14 11 12 17 20 21 25 37 42 47 48 46 47 50 52 55 59 61 64 67 67 68 69
26 24 23 21 18 17 15 15 14 14 13 15 16 18 18 18 24 41 42 46 46 46 48 51 54 58 60 64 66 68 68 69
26 26 25 20 19 17 16 16 15 14 15 16 15 17 18 21 29 33 41 41 41 44 45 47 52 57 59 63 65 68 69 69
26 26 22 19 19 18 17 19 20 17 19 21 20 20 23 26 29 36 39 40 39 40 45 49 53 57 59 62 65 68 69 70
25 26 26 24 25 18 18 19 24 19 21 22 24 27 24 29 30 29 35 40 41 46 45 50 53 57 60 62 64 68 69 69
27 24 23 26 46 49 24 19 39 28 27 25 27 22 24 27 35 34 33 36 43 51 54 52 54 57 60 61 64 67 69 69
27 26 27 45 52 51 27 21 46 40 34 34 29 30 31 39 46 45 44 36 37 47 56 54 56 59 60 61 62 65 68 70
29 30 28 52 52 47 49 55 49 48 46 47 50 55 55 59 55 60 65 67 65 42 41 54 57 58 60 61 63 64 66 68
36 36 51 52 53 57 58 56 57 58 59 60 61 62 62 61 62 58 60 64 68 67 62 54 53 60 58 60 62 63 65 66
44 48 52 53 54 57 57 56 57 58 59 60 59 58 57 58 58 56 54 54 61 63 64 62 64 66 62 59 60 62 64 65
46 50 53 54 53 54 54 55 55 56 56 56 55 55 55 56 56 56 56 56 54 60 60 58 57 59 59 63 63 62 63 65
45 50 50 51 53 53 54 53 54 55 55 56 56 56 57 57 57 58 58 57 57 56 57 59 60 60 59 59 69 66 67 70
50 52 51 52 53 53 52 52 53 54 53 54 55 56 56 56 57 58 63 63 61 58 57 58 59 58 59 61 68 71 71 68

GFSFLT2_sfc_dewp_024.txt.gz
Dewpoint
22 21 21 20 18 17 14 23 13 17 20 24 30 29 42 43 44 46 49 53 56 57 58 59 61 63 66 67 68 68 68 68
24 22 22 17 18 17 14 15 14 15 17 21 28 30 35 43 45 46 47 50 52 55 56 58 59 62 65 66 67 68 68 69
19 21 21 18 15 15 16 15 14 12 15 20 24 31 28 36 44 45 46 48 50 52 54 56 57 60 63 65 66 67 69 69
16 17 21 22 19 15 16 15 12 14 14 20 20 22 32 34 42 47 48 49 50 51 52 54 56 58 61 64 65 66 69 70
11 13 17 15 20 17 16 17 15 12 15 18 23 24 26 31 37 44 50 50 50 50 51 53 55 57 59 62 64 65 66 69
20 22 26 22 20 18 17 16 16 15 16 20 23 24 26 33 38 39 46 50 51 50 50 53 55 58 59 61 63 65 65 67
28 28 27 26 24 22 18 16 16 16 17 21 23 24 25 26 40 42 46 51 51 50 51 54 56 59 60 62 64 65 66 66
28 27 26 25 25 24 22 18 19 17 18 19 22 25 26 27 31 33 42 48 52 52 53 54 56 59 60 63 64 66 67 66
25 28 27 22 21 21 21 19 18 17 21 21 21 23 23 23 27 29 32 38 49 51 51 53 55 59 60 62 64 66 67 68
27 27 21 23 26 24 21 19 20 20 23 24 24 25 24 24 24 28 31 40 46 49 51 52 53 53 59 62 65 67 67 68
24 25 23 22 38 46 45 36 23 21 24 25 23 25 29 31 30 30 33 39 43 46 49 53 53 57 60 62 65 67 68 68
27 24 22 28 48 50 51 38 32 27 24 24 27 23 27 30 34 32 35 38 42 46 50 50 54 58 60 61 64 66 68 69
26 27 27 31 51 53 32 38 55 56 50 26 26 26 39 45 50 55 50 50 44 50 53 57 58 60 61 61 63 65 67 69
27 28 24 50 51 49 50 56 55 57 56 35 47 58 61 62 63 65 66 68 66 54 53 53 60 62 63 63 64 67 69 69
28 28 40 52 53 55 56 54 55 56 58 60 61 60 60 58 57 57 61 64 67 65 63 62 65 64 62 64 65 66 68 69
38 40 41 53 54 55 55 55 56 57 56 57 56 56 55 55 55 55 55 55 63 62 60 59 62 63 63 65 69 66 67 68
37 40 50 53 52 53 54 55 56 56 56 56 57 57 57 58 59 60 60 59 57 57 59 59 60 60 61 61 68 69 65 67
39 41 48 50 51 53 53 53 56 56 57 57 57 57 59 58 60 61 60 60 60 61 61 61 61 61 61 61 66 71 68 66
45 48 50 52 53 53 53 54 56 56 57 57 57 59 60 59 60 60 61 62 61 60 62 62 62 63 64 64 62 68 70 69

GFSFLT2_sfc_dewp_027.txt.gz
Dewpoint
22 22 22 23 23 19 14 18 14 14 20 25 29 29 35 41 43 51 55 57 59 61 63 65 66 67 68 70 71 72 72 73
23 22 22 22 22 18 17 15 14 14 21 18 31 30 32 37 41 45 48 54 57 60 61 63 64 66 67 69 70 71 72 72
25 23 21 20 21 21 19 18 11 8 9 28 34 39 35 34 38 42 46 49 52 58 61 62 62 64 66 68 70 71 71 72
22 24 23 23 22 23 18 25 18 15 12 22 28 32 36 34 36 42 48 51 52 53 57 59 62 63 64 66 67 69 71 72
23 21 21 23 23 22 21 21 26 16 15 23 26 29 32 32 36 43 48 51 53 52 56 58 60 63 63 65 65 66 70 70
22 25 27 27 22 24 21 20 22 21 20 23 26 30 32 35 38 40 46 53 55 55 58 59 61 63 64 64 64 66 67 69
27 26 25 26 25 25 24 25 24 23 24 26 29 31 33 33 38 41 43 47 51 55 60 63 63 64 64 64 66 66 69 68
24 23 25 25 26 26 25 24 23 23 23 26 29 34 35 34 37 41 40 44 50 57 59 61 63 63 64 65 66 68 69 69
19 23 21 21 23 24 24 25 23 23 25 27 27 30 34 37 39 42 41 44 48 54 58 60 60 63 63 65 66 68 69 70
15 20 17 21 26 26 27 27 25 25 26 28 32 35 38 38 38 40 42 43 48 43 52 61 57 56 63 64 68 69 70 70
15 15 20 19 22 38 40 30 39 35 29 27 27 30 38 37 38 42 43 45 46 43 49 61 61 62 65 65 67 69 69 70
20 13 14 22 22 28 48 32 51 53 50 40 29 26 29 41 38 36 38 41 45 46 52 54 61 59 63 64 66 68 69 70
20 18 18 23 31 52 37 34 53 54 55 56 52 37 44 44 44 48 49 47 47 48 52 57 59 59 65 65 66 67 68 69
24 19 15 26 35 30 45 54 55 56 56 57 59 58 47 55 62 66 66 64 50 53 59 64 64 63 66 68 68 69 70 71
27 23 33 36 43 52 56 56 56 57 57 57 59 59 56 62 65 66 67 67 65 64 66 67 67 67 67 69 69 70 71 73
30 29 33 34 39 40 54 56 57 57 57 57 60 59 59 59 59 62 65 65 63 63 64 65 68 69 70 71 71 70 71 72
34 35 37 39 41 42 46 56 57 57 58 58 58 57 58 59 60 59 60 61 62 63 63 64 65 65 64 65 71 72 70 70
31 35 38 43 40 46 53 55 57 57 59 59 60 58 58 61 62 62 62 63 63 63 63 64 65 65 65 66 65 67 68 68
38 40 42 46 48 52 54 56 57 58 59 60 59 60 60 60 60 60 63 63 63 65 66 66 66 66 67 68 67 66 66 67

GFSFLT2_sfc_dewp_030.txt.gz
Dewpoint
20 22 21 24 21 15 10 14 11 9 16 20 26 27 29 30 33 35 48 55 57 59 61 63 66 68 70 72 75 74 72 76
19 20 21 21 21 15 14 19 17 9 16 15 25 28 30 31 33 37 46 54 56 58 59 62 64 66 69 72 73 74 73 74
21 21 19 19 20 19 15 15 12 11 12 21 26 30 30 30 34 36 43 51 53 55 58 60 62 65 66 69 71 72 73 74
21 20 20 20 22 21 16 24 18 17 12 17 20 22 29 29 33 36 42 44 47 50 55 57 60 62 64 66 67 70 72 74
23 22 23 21 21 21 20 20 27 18 16 23 26 27 33 33 34 36 39 44 47 47 50 55 58 62 62 64 64 66 71 71
21 25 25 25 22 22 21 20 21 20 21 23 22 27 26 29 32 34 41 45 46 47 50 53 59 64 66 62 63 64 66 68
30 28 26 25 22 22 24 25 23 22 23 26 27 28 30 31 32 34 36 38 45 52 55 59 61 65 67 64 66 65 69 68
29 25 25 24 25 25 24 25 25 24 25 26 29 31 32 33 35 35 35 34 35 45 52 57 60 63 64 68 66 67 70 70
26 25 25 25 26 26 27 27 26 26 29 30 30 31 33 33 32 33 36 38 40 43 47 55 58 62 63 68 67 69 71 72
22 26 22 25 26 26 26 27 27 28 30 31 32 33 34 33 34 34 34 37 39 35 40 50 53 48 60 62 70 70 72 73
21 21 23 22 23 24 27 28 28 29 30 29 30 30 33 32 32 35 38 38 39 38 41 48 48 53 56 62 66 69 71 73
20 21 20 23 23 25 32 30 34 38 41 40 44 30 29 33 31 32 36 38 40 40 41 44 54 54 58 60 63 68 70 72
18 18 20 23 28 42 31 42 47 47 48 50 50 49 51 51 51 49 47 46 47 49 49 52 57 58 61 62 63 67 68 69
19 18 15 19 21 25 42 47 48 49 49 51 53 55 58 59 58 55 52 55 59 56 52 54 60 60 63 69 68 70 71 71
19 18 28 29 26 32 38 40 43 50 53 54 55 56 59 60 60 52 56 60 62 52 57 64 67 66 66 70 71 70 71 73
26 25 29 30 32 34 34 36 40 42 49 54 55 58 60 60 58 60 63 66 65 62 62 67 69 69 70 72 71 71 71 72
32 33 32 29 29 31 35 36 35 37 47 53 57 59 60 59 61 63 65 65 65 65 66 67 68 69 69 71 73 71 71 71
27 33 34 36 35 36 34 39 40 45 47 54 59 60 61 61 63 63 64 64 64 64 65 66 66 66 67 68 68 68 69 67
35 36 36 37 40 40 43 45 45 48 51 58 60 61 60 62 62 61 64 64 66 66 67 67 67 67 67 68 69 69 68 68

GFSFLT2_sfc_dewp_033.txt.gz
Dewpoint
18 18 21 21 18 13 12 12 8 8 15 17 22 25 28 31 34 37 43 48 52 57 59 63 64 67 69 72 75 76 75 77
18 19 19 21 19 14 14 20 17 13 17 15 25 26 27 31 33 35 38 46 51 55 58 62 62 66 69 71 74 75 74 76
22 19 19 18 19 19 14 13 14 16 14 19 25 28 29 30 32 33 35 43 49 54 56 60 62 63 66 69 73 74 75 75
21 19 20 20 20 23 17 25 15 16 16 18 20 21 27 29 32 32 37 41 49 53 54 57 60 62 64 66 68 73 74 75
26 20 21 20 19 20 20 19 26 16 17 24 26 26 28 29 32 36 39 43 49 50 53 54 57 62 62 65 65 66 72 73
24 26 22 23 19 19 19 19 21 20 21 25 27 30 32 32 34 35 39 41 44 45 48 53 58 64 66 64 64 65 67 69
28 26 25 21 20 19 21 23 21 21 23 26 29 29 30 32 35 36 40 41 43 46 51 57 61 65 67 64 66 66 69 69
31 27 28 26 25 21 19 21 22 22 23 25 29 30 30 30 32 34 36 35 37 39 48 53 57 64 66 68 66 68 70 70
31 30 29 27 26 26 24 23 23 23 27 28 28 30 32 33 34 35 35 35 37 38 40 50 53 60 62 68 69 68 71 72
26 31 28 28 28 26 27 27 26 28 31 31 33 34 34 34 35 36 36 37 37 33 38 45 42 47 59 61 72 71 72 72
25 25 26 25 26 27 28 28 29 30 31 30 30 32 35 34 35 37 37 37 36 35 36 48 42 47 53 61 67 71 72 73
26 24 25 27 26 26 30 27 31 30 31 30 33 32 35 47 47 42 37 37 38 38 38 40 48 43 46 50 61 70 71 73
21 24 25 27 30 32 29 42 39 35 37 40 41 47 54 53 54 56 56 55 53 52 50 52 51 48 60 59 59 66 70 72
21 22 23 26 23 29 41 45 45 48 50 51 52 52 52 53 56 57 58 57 54 54 57 60 57 58 67 68 69 72 72 73
20 20 31 30 30 30 30 37 39 40 41 44 45 50 52 55 58 59 59 57 50 52 62 58 61 63 68 73 75 74 75 76
24 26 28 27 27 28 30 33 35 35 38 37 38 46 52 56 59 59 59 61 62 63 62 61 67 69 69 72 73 74 76 77
27 28 30 31 31 31 31 34 32 33 37 38 38 43 52 58 62 60 63 66 65 66 67 68 71 72 72 72 72 71 72 71
27 33 33 35 34 36 34 32 33 35 36 44 45 49 58 59 63 65 64 65 67 67 67 67 68 68 70 70 73 73 71 70
36 36 35 35 38 36 36 35 35 39 43 45 47 50 60 61 64 63 66 65 65 66 67 68 68 66 68 70 70 70 69 70

GFSFLT2_sfc_dewp_036.txt.gz
Dewpoint
22 16 17 18 16 13 12 12 9 10 15 17 24 26 27 27 34 40 44 47 55 59 61 62 62 65 68 71 74 75 74 76
19 18 16 17 18 14 15 20 19 14 21 19 26 28 29 31 30 37 41 46 53 58 61 62 62 64 67 70 73 74 75 75
21 19 18 17 19 18 15 15 15 17 13 26 32 31 31 31 33 36 41 46 50 57 59 62 63 64 65 68 72 74 74 75
24 21 19 18 20 22 19 26 18 20 16 22 28 30 30 30 34 37 42 48 50 54 58 61 63 63 65 66 69 72 75 75
26 24 21 20 19 20 21 19 28 19 17 25 28 27 34 32 37 41 46 45 49 53 56 59 62 64 64 66 66 70 74 74
25 28 26 24 19 20 19 21 23 19 24 26 27 28 32 37 40 41 47 48 49 52 57 59 62 65 66 66 66 68 71 73
28 28 24 19 18 19 21 25 24 22 22 30 35 34 35 36 42 44 48 49 54 53 59 62 64 66 66 66 67 67 69 71
33 31 29 27 20 20 19 19 21 21 22 30 33 38 37 41 41 45 46 45 49 54 58 63 64 67 66 67 67 68 69 69
30 32 31 28 27 22 21 20 20 23 29 32 34 36 38 38 37 38 36 39 43 50 54 59 60 68 68 68 69 70 70 71
30 33 29 31 31 28 26 23 22 26 30 33 39 40 39 38 37 40 41 45 51 39 48 59 50 50 63 68 71 71 73 72
28 28 32 30 30 29 28 28 26 26 29 31 33 34 37 35 36 39 45 47 48 42 46 62 57 58 62 64 71 71 71 73
29 27 26 32 28 28 28 27 34 30 31 30 31 29 46 54 53 53 55 58 60 58 57 50 63 55 65 63 67 71 71 71
24 26 27 31 30 28 29 43 47 47 48 40 39 51 54 53 54 56 58 60 61 62 61 66 67 65 69 65 65 68 71 72
24 25 26 32 30 35 46 45 42 43 44 46 47 48 51 53 57 58 60 60 59 62 63 63 70 70 71 73 74 75 74 73
23 24 39 35 33 32 31 35 41 39 38 40 39 40 44 50 57 60 62 63 61 60 64 65 71 73 71 77 78 77 78 77
26 27 29 29 29 30 31 32 33 35 35 35 38 39 41 45 53 60 65 64 67 68 69 71 72 71 75 76 77 78 79 79
29 32 35 32 30 32 31 33 32 32 33 34 36 38 46 50 57 59 62 67 68 70 71 72 74 75 74 76 77 76 77 77
30 35 38 40 36 36 34 33 35 36 36 37 39 44 49 51 59 61 65 68 69 69 69 69 69 70 71 72 75 77 75 73
36 39 38 40 41 39 39 37 37 38 38 40 40 44 48 51 60 61 65 68 68 69 69 70 70 68 69 72 72 74 74 76

GFSFLT2_sfc_dewp_042.txt.gz
Dewpoint
29 33 32 31 29 24 15 21 14 16 15 18 19 18 30 46 54 53 55 55 55 58 58 59 63 65 66 66 66 69 69 69
27 28 31 23 23 20 16 15 15 14 14 17 16 16 18 29 48 50 55 55 55 57 58 59 61 64 66 66 66 67 69 69
20 22 27 28 20 18 17 16 13 13 14 15 19 20 19 22 43 51 53 54 55 56 58 58 60 63 66 67 66 67 68 70
26 21 21 31 22 17 14 14 16 17 14 24 21 19 19 17 26 50 53 54 55 56 57 58 59 62 64 68 67 68 69 70
25 20 19 18 26 17 16 15 15 13 14 23 25 29 30 25 24 37 50 54 54 56 57 58 58 61 65 66 68 69 69 70
29 27 29 22 19 23 16 16 14 15 16 21 23 30 28 24 31 39 49 53 56 56 57 58 58 60 63 65 69 70 70 71
25 26 27 31 26 21 15 16 16 16 19 20 26 35 33 34 37 42 48 52 56 57 57 59 59 59 62 64 67 70 70 71
24 30 32 31 31 31 17 16 21 19 19 22 29 39 40 41 44 47 45 52 56 57 58 59 59 59 61 63 65 68 70 70
26 31 32 30 31 31 23 18 18 19 22 29 46 51 51 39 38 40 46 53 56 57 58 59 59 59 60 62 64 67 69 69
26 30 28 32 33 32 37 38 40 44 34 50 52 53 54 55 55 54 53 50 46 50 58 63 63 61 61 62 63 64 66 69
26 31 32 32 34 30 32 35 37 40 47 50 51 52 54 57 59 58 57 58 57 57 57 55 63 63 62 63 64 64 65 66
25 28 31 32 34 36 39 33 35 37 38 44 47 50 51 55 59 60 64 61 58 57 57 56 60 56 63 63 64 64 64 66
25 29 36 36 36 37 34 36 38 34 35 37 40 42 43 53 58 57 60 65 66 64 61 58 59 59 64 64 64 65 66 66
31 32 32 38 38 35 35 36 36 36 35 34 37 42 46 48 50 57 57 63 66 69 70 69 62 59 57 60 64 68 68 70
34 36 37 38 45 41 39 37 39 38 34 35 35 41 44 47 46 58 58 59 64 67 69 70 70 70 70 70 69 69 69 69
31 30 34 37 42 39 39 38 38 39 39 36 37 43 44 44 44 55 59 59 62 65 66 68 69 69 69 69 71 72 66 71
32 33 35 36 37 37 38 39 39 38 40 41 39 44 42 43 43 44 55 59 62 63 64 66 68 67 67 66 68 69 71 70
33 36 37 37 39 40 39 39 40 39 39 41 41 42 41 40 42 43 46 59 61 62 63 64 67 65 65 66 68 68 68 71
41 44 43 40 40 41 40 40 41 40 38 40 42 42 42 41 44 47 48 57 60 62 63 65 66 65 66 68 69 67 66 65

GFSFLT2_sfc_dewp_048.txt.gz
Dewpoint
32 31 30 30 28 28 26 23 24 27 27 26 34 35 49 51 54 57 57 58 61 61 62 62 62 63 64 65 65 66 65 67
33 33 30 31 30 28 26 25 19 23 19 30 28 34 41 49 51 54 56 56 58 61 61 62 62 63 64 65 65 65 66 66
34 30 25 26 31 31 29 27 25 20 21 25 29 32 32 38 52 52 54 55 58 60 61 61 62 63 64 64 65 65 66 67
33 34 34 33 30 29 30 28 23 25 26 24 24 26 28 30 42 53 54 56 56 56 59 60 61 62 63 64 64 65 67 67
26 27 29 27 27 26 25 26 29 27 28 28 23 25 26 27 32 44 53 55 56 55 56 59 60 61 63 64 64 65 67 67
24 25 29 27 27 27 25 24 26 27 29 27 26 26 31 30 32 31 39 54 55 56 55 57 60 62 64 64 65 65 66 67
30 31 29 28 28 28 26 25 26 25 21 23 28 27 33 44 45 43 38 36 52 56 56 58 60 62 64 64 65 65 66 67
29 29 29 26 27 27 27 27 27 29 24 31 47 54 57 58 59 59 51 39 42 55 56 58 60 60 63 65 65 66 66 66
24 27 25 25 27 31 32 32 35 25 34 43 53 56 55 56 58 60 61 49 39 53 56 57 59 60 62 65 66 66 66 67
25 26 25 34 37 33 31 34 36 36 39 54 56 56 54 53 54 58 63 61 53 54 56 58 59 59 62 64 67 67 67 68
26 25 27 34 35 36 34 31 37 37 38 43 49 53 55 52 54 58 61 66 57 57 58 60 60 61 63 65 66 68 68 69
32 27 32 37 37 37 38 30 37 37 38 38 52 52 50 46 52 58 61 66 64 61 61 60 61 61 63 64 66 68 69 69
28 29 34 38 37 40 33 33 37 36 36 38 42 45 44 43 45 52 60 64 67 63 62 62 62 62 63 64 65 67 69 70
31 31 33 38 40 36 37 38 38 37 37 36 39 42 44 45 47 49 56 61 65 68 68 66 64 63 64 65 67 67 68 69
34 34 40 40 41 40 41 40 40 38 39 38 36 40 42 47 51 53 55 60 62 65 66 67 69 69 69 70 70 68 67 68
34 37 38 40 40 41 43 43 42 42 40 39 37 38 41 45 49 54 57 58 60 62 64 65 66 67 67 69 71 70 70 69
35 38 40 40 42 42 44 44 45 44 42 41 40 38 42 45 48 49 54 59 60 61 63 64 66 66 68 69 69 69 70 70
35 40 41 41 44 46 45 45 45 45 44 44 43 41 42 44 48 49 49 55 59 61 63 64 65 66 67 69 68 68 68 68
40 42 43 42 43 43 44 45 45 45 45 45 45 44 43 43 46 49 49 52 58 61 62 63 65 65 65 65 66 66 65 66